Location: Unspecified
(51.5147°N, 7.4673°E)
Time: 06:59:38
(UTC+01:00)

A-11 Canister half - Pass Details

Date: 26 February 2026
Orbit: 1524 x 1683 km, 47.3° (Epoch: 14 March)

Event Time Altitude Azimuth Distance (km) Brightness Sun altitude
Rises 19:18:00 0° 280° (W) 4,706 13.5 -12.1°
Reaches altitude 10° 19:21:08 10° 276° (W) 3,710 12.5 -12.6°
Maximum altitude 19:30:07 55° 202° (SSW) 1,778 9.4 -14.0°
Enters shadow 19:38:33 12° 129° (SE) 3,538 10.4 -15.3°
